Location: La Sioule Rivi�re
(46.3664°N, 3.3197°E)
Time: 12:38:24
(UTC+00:00)

Aureole 3 Rocket - Pass Details

Date: 29 October 2020
Orbit: 399 x 1739 km, 82.5° (Epoch: 23 November)

Event Time Altitude Azimuth Distance (km) Brightness Sun altitude
Rises 18:05:14 0° 199° (SSW) 2,666 6.6 -15.9°
Reaches altitude 10° 18:07:06 10° 203° (SSW) 1,901 5.9 -16.2°
Maximum altitude 18:11:13 61° 284° (WNW) 819 3.9 -16.9°
Drops below altitude 10° 18:17:01 10° 4° (N) 2,658 6.2 -17.9°
Sets 18:20:02 0° 8° (N) 3,845 7.0 -18.4°
